Cosmos 1805 - Orbit

View from above orbital plane
View from above orbital plane
View from above satellite
View from above satellite

Ground track
Ground track

The orbit data is extracted from the following two-line orbital elements,

1 17191U 86097A   13137.83519388  .00003189  00000-0  22250-3 0  6171
2 17191 082.5028 050.2109 0011859 117.1612 243.0826 15.05017927438722
Epoch (UTC): 17 May 2013 20:02:40
Eccentricity: 0.0011859
inclination: 82.5028°
perigee height: 543 km
apogee height: 559 km
right ascension of ascending node: 50.2109°
argument of perigee: 117.1612°
revolutions per day: 15.05017927
mean anomaly at epoch: 243.0826°
orbit number at epoch: 43872

The dashed part of the orbit path shows where the satellite is in the earth's shadow,  

Developed and maintained by Chris Peat, Heavens-Above GmbH. Please read the updated FAQ before sending e-mail. Imprint. DLR